Погода в Буинске

Россия / Чувашская Республика     55°11′42″N   47°03′23″E
темп.,
°C
ветер,
м/с
пор.,
м/с
влажн.,
%
обл.,
%
осадки,
мм/ч
давл.,
гПа
погр.,
м
17 апреля, сб
сб1700:00+7всв4128074 0.0 1024358
03:00+6всв4107817 0.0 1025288
06:00+5всв411725 0.0 1025327
09:00+10всв59555 0.0 1025557
12:00+13всв57465 0.0 10251002
15:00+14всв57405 0.0 10241185
18:00+11всв49410 0.0 1024510
21:00+6всв411660 0.0 1024351
18 апреля, вс
вс1800:00+5всв412740 0.0 1023373
03:00+3всв311810 0.0 1024285
06:00+4всв411780 0.0 1023376
09:00+9всв58532 0.0 1023825
12:00+12всв56405 0.0 10231351
15:00+13всв57385 0.0 10231654
18:00+11всв495198 0.0 1023672
21:00+6всв51172100 0.0 1026704
19 апреля, пн
пн1900:00+5в51063100 0.0 1027652
03:00+3всв5115899 0.0 1028499
06:00+2всв51267100 0.0 1028566
09:00+4в61048100 0.0 1029884
12:00+6в6936100 0.0 10291345
15:00+7в6938100 0.0 10291466
18:00+5в61042100 0.0 10291029
21:00+4в51344100 0.0 1030648
20 апреля, вт
вт2000:00+2в5145147 0.0 1031552
03:00+1в514585 0.0 1031470
06:00+1в514620 0.0 1031538
09:00+6вюв711410 0.0 1031954
12:00+8вюв71135100 0.0 10301191
15:00+10вюв7113535 0.0 10281336
18:00+8вюв71337100 0.0 10271124
21:00+6юв71541100 0.0 1026983
21 апреля, ср
ср2100:00+5юв71746100 0.0 1025828
03:00+4юв71750100 0.0 1024847
06:00+4юв71752100 0.0 1022847
09:00+3юв71882100 2.2 1023859
12:00+3ююв81778100 1.3 1023921
15:00+4ююв71682100 1.3 1023855
18:00+4ююв71585100 0.0 1024784
21:00+4ююв61487100 0.0 1024718